Other Public Products
Issued by NWS Grand Forks, ND

Home | Current Version | Previous Version | Text Only | Print | Product List | Glossary Off
Versions: 1 2 3 4 5 6 7 8 9 10 11 12 13 14 15 16 17 18 19 20 21 22 23 24 25 26 27 28 29 30 31 32 33 34 35 36 37 38 39 40 41 42 43 44 45 46 47 48 49 50

000
FPUS83 KFGF 292131
OPUFGF
PRAIRIE TO PINES WEATHER ROUNDUP
NATIONAL WEATHER SERVICE EASTERN NORTH DAKOTA/GRAND FORKS ND
400 PM CDT SUN MAR 29 2015

 **SATELLITE DATA USED TO AUGMENT SKY COVER AT AUTOMATED STATIONS**
 *****  WEATHER ACROSS EASTERN NORTH DAKOTA  *****

CITY           SKY/WX    TMP DP  RH WIND       PRES   REMARKS
GRAND FORKS    PTSUNNY   55  28  35 NW25G31   29.86F
GRAND FORKS AF MOSUNNY   55  25  32 N24G35    29.88R
GRAND CITY NWS   N/A     54 N/A N/A N20         N/A
BUXTON           N/A     55  24  30 NW29G43     N/A
DEVILS LAKE    PTSUNNY   54  30  40 NW21G26   29.89F
FARGO          MOSUNNY   58  26  29 NW28G38   29.89R
WAHPETON ARPT  PTCLDY    54  23  30 NW23G38   29.91R
$$

 *****  WEATHER ACROSS CENTRAL AND WESTERN NORTH DAKOTA  *****

CITY           SKY/WX    TMP DP  RH WIND       PRES   REMARKS
JAMESTOWN      PTSUNNY   54  23  30 NW21      29.94S
BISMARCK       SUNNY     59  26  28 NW16G26   30.00F
MINOT          PTSUNNY   57  27  31 W23G32    29.95S
MINOT AFB      PTSUNNY   57  31  37 NW22G28   29.93F
GARRISON         N/A     56  30  37 W23G33    29.97F
WILLISTON      PTSUNNY   60  32  34 W16G24    29.99F
DICKINSON      SUNNY     59  28  30 NW17      30.01F
HETTINGER      MOSUNNY   60  28  29 W22G33    30.05F
$$

 *****  OTHER OBSERVATIONS NORTHEAST NORTH DAKOTA  *****

CITY           SKY/WX    TMP DP  RH WIND       PRES   REMARKS
WALHALLA         N/A     52  32  46 NW25G32   29.86S
LANGDON        NOT AVBL
CAVALIER       FAIR      54  30  40 NW21G37   29.86S
GRAFTON        NOT AVBL
CANDO          CLOUDY    54  32  43 NW23G31   29.90S
FORT TOTTEN    NOT AVBL
ROLLA          MOCLDY    48  32  53 NW21G26   29.90S
RUGBY            N/A     54  32  43 NW23G31   29.91S
 ***** THE ABOVE OBSERVATIONS ARE NON NWS ARE NOT QUALITY
        CONTROLLED AND MAY MIS-REPORT RAIN FOR SNOW...
$$

 *****  OTHER OBSERVATIONS SOUTHEAST NORTH DAKOTA *****

CITY           SKY/WX    TMP DP  RH WIND       PRES   REMARKS
COOPERSTOWN    NOT AVBL
VALLEY CITY    MOCLDY    54  23  30 NW22G31   29.93S
OAKES            N/A     55  30  38 NW23G30   29.96S
GWINNER        PTCLDY    55  30  38 NW26        N/A
BUFFALO        NOT AVBL
WYNDMERE         N/A     55  30  38 NW23        N/A
 ***** THE ABOVE OBSERVATIONS ARE NON NWS ARE NOT QUALITY
       CONTROLLED AND MAY MIS-REPORT RAIN FOR SNOW...
$$

  *****  WEATHER ACROSS NORTHERN MINNESOTA  *****

CITY           SKY/WX    TMP DP  RH WIND       PRES   REMARKS
FLAG ISLAND    MOSUNNY   43  27  52 NW22G35   29.75R
WARROAD        MOSUNNY   48  30  49 NW22G32   29.79R
ROSEAU         MOSUNNY   48  34  57 NW17G25   29.80R
HALLOCK        MOSUNNY   52  34  50 NW16G26   29.85S
THF RVR FALLS  MOSUNNY   48  30  49 NW28      29.85R
HALSTAD          N/A     54  21  27 NW28        N/A
FOSSTON        PTSUNNY   48  30  49 NW25G33   29.85R
BAUDETTE       SUNNY     45  30  55 NW22G35   29.74R
WASKISH        PTSUNNY   46  28  49 NW24G30   29.77R
CROOKSTON      MOSUNNY   54  28  37 N25G32    29.87S
$$
  *****  WEATHER ACROSS CENTRAL AND WEST MINNESOTA  *****

CITY           SKY/WX    TMP DP  RH WIND       PRES   REMARKS
BEMIDJI        PTSUNNY   46  28  51 NW20G32   29.80R
PARK RAPIDS    MOSUNNY   51  28  41 NW28G44   29.80R
WADENA         MOSUNNY   46  28  49 NW26G38   29.84R
DETROIT LAKES  MOSUNNY   50  32  50 N28G33    29.87R
MOORHEAD       MOSUNNY   55  21  26 N28G36    29.89R
FERGUS FALLS   SUNNY     52  27  37 N23G30    29.91R
ELBOW LAKE     MOCLDY    51  30  45 NW29G37   29.89R
MORRIS MN      MOSUNNY   54  28  37 NW28G39   29.89R
STAPLES        MOSUNNY   48  27  43 NW25G35   29.82R
WHEATON        MOSUNNY   54  27  35 NW25G36   29.93S
$$
  *****  WEATHER ELSEWHERE ACROSS MINNESOTA  *****

CITY           SKY/WX    TMP DP  RH WIND       PRES   REMARKS
DULUTH         CLOUDY    41  31  67 NW22G43   29.64R
INTRNTL FALLS  MOSUNNY   42  27  55 NW26G35   29.68R
ELY            LGT RAIN  37  34  87 NW15G26   29.61R
CLOQUET        CLOUDY    43  30  61 NW25G36   29.67R
BRAINERD       PTSUNNY   50  26  39 NW22G39   29.77R
HIBBING        LGT RAIN  41  33  73 NW23G36   29.67R
ALEXANDRIA     MOSUNNY   51  30  44 NW26G36   29.87R
SAINT CLOUD    MOSUNNY   52  30  43 NW28G41   29.79R
MINNEAPOLIS    MOSUNNY   52  29  41 NW36G46   29.76R
$$

  *****  WEATHER ACROSS SOUTH DAKOTA  *****

CITY           SKY/WX    TMP DP  RH WIND       PRES   REMARKS
SIOUX FALLS    MOSUNNY   59  23  25 NW26G37   29.99R
BROOKINGS      NOT AVBL
WATERTOWN      SUNNY     55  24  30 NW29G38   29.97R
HURON          SUNNY     60  22  23 NW24G36   30.02S
SISSETON         N/A     55  25  31 N33G39    29.93R
ABERDEEN       SUNNY     60  22  23 NW22G33   30.01F
MITCHELL       SUNNY     62  23  22 N21G32    30.04S
PIERRE         SUNNY     60  24  25 NW18      30.07F
MOBRIDGE       SUNNY     60  25  26 NW18G25   30.01F
RAPID CITY     SUNNY     62  25  24 N16G24    30.08F
$$

  *****  SOME WEATHER IN NEARBY STATES *****

CITY           SKY/WX    TMP DP  RH WIND       PRES   REMARKS
GLASGOW MT     MOSUNNY   61  30  31 W18G30    29.98F
GREAT FALLS MT PTSUNNY   59  21  23 SW26G36   30.05F
CHEYENNE WY    SUNNY     61  18  18 S13G21    30.18F
SCOTTSBLUFF NE SUNNY     64  25  22 W7G21     30.16F
OMAHA NE       MOSUNNY   61  33  35 NW20G36   30.02R
DES MOINES IA  MOSUNNY   61  36  39 NW28G37   29.92R
DAVENPORT IA   CLOUDY    54  41  61 SW17      29.78F
CHICAGO IL     PTSUNNY   41  30  65 SW20G29   29.80F
EAU CLAIRE WI  CLOUDY    45  37  73 NW20G32   29.68R
LA CROSSE WI   CLOUDY    49  37  63 NW14      29.74R
$$

  *****  SOME NATIONAL WEATHER *****

CITY           SKY/WX    TMP DP  RH WIND       PRES   REMARKS
LA GUARDIA NY  MOSUNNY   45   4  18 NW3       30.16F
RALEIGH NC     MOSUNNY   51  11  20 SW8       30.31F
ATLANTA GA     MOSUNNY   60  19  20 S8        30.27F
NEW ORLEANS LA MOSUNNY   76  60  57 S17       30.20F
OKLAHOMA CITY  MOSUNNY   76  47  35 N14       30.03R
ALBUQUERQUE NM PTSUNNY   76  20  12 SE7       30.18F
SALT LAKE CITY MOSUNNY   64  25  22 NW12      30.25F
LOS ANGELES CA MOSUNNY   67  57  70 W10       30.02F
BOISE ID       SUNNY     64  29  26 CALM      30.24F
SEATTLE WA     CLOUDY    58  43  57 SW13      30.24F
$$

*** WEATHER ACROSS MANITOBA...SASKATCHEWAN AND ONTARIO ***
                ***ONTARIO***

CITY           SKY/WX    TMP DP  RH WIND       PRES   REMARKS
GERALDTON      LGT SNOW  32  30  93 W5        29.34R VSB 3/4
THUNDER BAY    LGT RAIN  41  36  81 NW12G26   29.43R
SIOUX LOOKOUT  PTSUNNY   37  28  70 N12G22    29.57R
TORONTO        PTSUNNY   39  10  30 SW21G30   29.98F
BIG TROUT LK   FLURRIES  21  18  86 N15G23    29.55R WCI   8
PICKLE LAKE    FLURRIES  36  30  80 VRB12G24  29.47R
DRYDEN         PTSUNNY   41  27  56 NW16G31   29.61R
KENORA         PTSUNNY   43  25  49 NW18G26   29.71R
$$
                *** MANITOBA***

CITY           SKY/WX    TMP DP  RH WIND       PRES   REMARKS
BRANDON        MOSUNNY   50  32  50 W21G26    29.89S
DAUPHIN        SUNNY     46  32  57 W22G28    29.82S
ISLAND LAKE    FLURRIES  28  25  86 N10G21    29.71R WCI  19
PILOT MOUND      N/A     50  28  43 NW16G22     N/A
THE PAS        MOSUNNY   48  27  43 NW17G24   29.77R
THOMPSON       PTSUNNY   25  18  74 NW8       29.80R WCI  16
WINNIPEG       MOSUNNY   50  30  46 NW21G28   29.83S
LYNN LAKE      MOSUNNY   36  25  64 W6        29.76S
CHURCHILL      PTSUNNY    7   1  78 N14       29.91R WCI -10
GILLAM         MOSUNNY   18   1  49 N10       29.82R WCI   6
$$
                ***SASKATCHEWAN***

CITY           SKY/WX    TMP DP  RH WIND       PRES   REMARKS
ESTEVAN        MOSUNNY   55  34  44 W20       29.95F
KINDERSLEY     PTSUNNY   55  41  58 S8        29.84F
LLOYDMINSTER   CLOUDY    52  34  50 SW8       29.80
PRINCE ALBERT  PTSUNNY   54  30  40 NW14      29.84F
REGINA         MOSUNNY   54  37  54 W9        29.93F
YORKTON        SUNNY     50  23  34 NW16      29.89S



USA.gov is the U.S. government's official web portal to all federal, state and local government web resources and services.